WAT59 PHKO-PHNL

Flight info

Callsign WAT59
Flight time 0h 34m
Altitude 22000
Route KOA V20 HOKLA JULLE5
Aircraft A319/M-SDE3FGHIRWY/LB1

Departure

Time 2026-05-07 22:47
Airport Ellison Onizuka Kona International Airport at Keāhole (PHKO)

Arrival

Time 2026-05-07 23:21
Airport Daniel K. Inouye International Airport (PHNL)
Time Latitude Longitude Altitude Speed Heading
2026-05-07 22:23 19.73723 -156.04213 46 ft 0 kts 95°
2026-05-07 22:38 19.73724 -156.04228 44 ft 4 kts 94°
2026-05-07 22:38 19.73726 -156.04257 41 ft 4 kts 90°
2026-05-07 22:39 19.73725 -156.04285 39 ft 4 kts 83°
2026-05-07 22:39 19.73719 -156.04312 41 ft 4 kts 58°
2026-05-07 22:39 19.73705 -156.04326 43 ft 1 kts
2026-05-07 22:42 19.73725 -156.04324 40 ft 6 kts
2026-05-07 22:42 19.73780 -156.04318 43 ft 10 kts
2026-05-07 22:42 19.73858 -156.04311 42 ft 13 kts
2026-05-07 22:42 19.73953 -156.04301 43 ft 15 kts
2026-05-07 22:43 19.74062 -156.04292 43 ft 17 kts
2026-05-07 22:43 19.74185 -156.04284 44 ft 19 kts
2026-05-07 22:43 19.74317 -156.04270 47 ft 19 kts
2026-05-07 22:43 19.74451 -156.04258 50 ft 20 kts
2026-05-07 22:44 19.74594 -156.04245 50 ft 22 kts
2026-05-07 22:44 19.74751 -156.04232 51 ft 23 kts
2026-05-07 22:44 19.74916 -156.04218 53 ft 25 kts
2026-05-07 22:44 19.75098 -156.04201 48 ft 29 kts
2026-05-07 22:45 19.75283 -156.04184 46 ft 15 kts
2026-05-07 22:45 19.75357 -156.04225 42 ft 15 kts 286°
2026-05-07 22:45 19.75370 -156.04348 42 ft 19 kts 272°
2026-05-07 22:45 19.75361 -156.04433 41 ft 6 kts 216°
2026-05-07 22:46 19.75327 -156.04438 43 ft 0 kts 184°
2026-05-07 22:46 19.75317 -156.04439 43 ft 9 kts 184°
2026-05-07 22:47 19.75016 -156.04465 48 ft 77 kts 185°
2026-05-07 22:47 19.74279 -156.04532 46 ft 134 kts 185°
2026-05-07 22:47 19.73225 -156.04633 326 ft 155 kts 190°
2026-05-07 22:47 19.72151 -156.04729 1004 ft 158 kts 186°
2026-05-07 22:48 19.71003 -156.04830 1435 ft 172 kts 186°
2026-05-07 22:48 19.69793 -156.04936 1953 ft 183 kts 187°
2026-05-07 22:48 19.68457 -156.05042 2305 ft 202 kts 185°
2026-05-07 22:48 19.67016 -156.05440 2526 ft 231 kts 213°
2026-05-07 22:49 19.65928 -156.06777 2940 ft 255 kts 249°
2026-05-07 22:49 19.65743 -156.08691 3643 ft 272 kts 280°
2026-05-07 22:49 19.66414 -156.10568 4674 ft 275 kts 300°
2026-05-07 22:49 19.67686 -156.12090 5617 ft 283 kts 321°
2026-05-07 22:50 19.69365 -156.13278 6444 ft 294 kts 327°
2026-05-07 22:50 19.71127 -156.14386 7475 ft 292 kts 329°
2026-05-07 22:50 19.72897 -156.15437 8538 ft 290 kts 330°
2026-05-07 22:50 19.74684 -156.16477 9400 ft 297 kts 329°
2026-05-07 22:51 19.76512 -156.17556 10188 ft 304 kts 329°
2026-05-07 22:51 19.78421 -156.18707 10475 ft 327 kts 328°
2026-05-07 22:51 19.80433 -156.19948 10997 ft 338 kts 327°
2026-05-07 22:51 19.82344 -156.21358 11686 ft 341 kts 318°
2026-05-07 22:52 19.83965 -156.23198 12381 ft 343 kts 305°
2026-05-07 22:52 19.85332 -156.25293 13074 ft 346 kts 302°
2026-05-07 22:52 19.86706 -156.27413 13765 ft 351 kts 303°
2026-05-07 22:52 19.88099 -156.29553 14387 ft 354 kts 303°
2026-05-07 22:53 19.89505 -156.31711 14991 ft 357 kts 303°
2026-05-07 22:53 19.90922 -156.33887 15615 ft 359 kts 303°
2026-05-07 22:53 19.92352 -156.36079 16231 ft 362 kts 303°
2026-05-07 22:53 19.93793 -156.38288 16864 ft 365 kts 303°
2026-05-07 22:54 19.95241 -156.40509 17478 ft 367 kts 303°
2026-05-07 22:54 19.96702 -156.42752 18097 ft 370 kts 304°
2026-05-07 22:54 19.98171 -156.45011 18669 ft 373 kts 303°
2026-05-07 22:54 19.99653 -156.47288 19177 ft 376 kts 304°
2026-05-07 22:55 20.01151 -156.49587 19706 ft 379 kts 303°
2026-05-07 22:55 20.02657 -156.51902 20245 ft 382 kts 303°
2026-05-07 22:55 20.04173 -156.54234 20781 ft 385 kts 303°
2026-05-07 22:55 20.05700 -156.56585 21304 ft 388 kts 303°
2026-05-07 22:56 20.07239 -156.58954 21819 ft 391 kts 303°
2026-05-07 22:56 20.08787 -156.61339 22049 ft 392 kts 303°
2026-05-07 22:56 20.10316 -156.63700 22097 ft 380 kts 303°
2026-05-07 22:56 20.11792 -156.65976 22102 ft 368 kts 304°
2026-05-07 22:57 20.13239 -156.68205 22098 ft 365 kts 303°
2026-05-07 22:57 20.14679 -156.70424 22098 ft 363 kts 303°
2026-05-07 22:57 20.16094 -156.72609 22101 ft 363 kts 304°
2026-05-07 22:57 20.17527 -156.74821 22098 ft 363 kts 304°
2026-05-07 22:58 20.18982 -156.77070 22110 ft 364 kts 303°
2026-05-07 22:58 20.20397 -156.79259 22104 ft 364 kts 303°
2026-05-07 22:58 20.21833 -156.81481 22104 ft 364 kts 304°
2026-05-07 22:58 20.23464 -156.83552 22107 ft 365 kts 315°
2026-05-07 22:59 20.25307 -156.85413 22104 ft 365 kts 316°
2026-05-07 22:59 20.27153 -156.87272 22102 ft 365 kts 315°
2026-05-07 22:59 20.28922 -156.89210 22100 ft 364 kts 309°
2026-05-07 22:59 20.30530 -156.91295 22092 ft 364 kts 308°
2026-05-07 23:00 20.32125 -156.93394 22094 ft 364 kts 308°
2026-05-07 23:00 20.33714 -156.95501 22094 ft 364 kts 308°
2026-05-07 23:00 20.35297 -156.97603 22091 ft 364 kts 308°
2026-05-07 23:00 20.36880 -156.99708 22090 ft 364 kts 308°
2026-05-07 23:01 20.38465 -157.01809 22090 ft 364 kts 308°
2026-05-07 23:01 20.40050 -157.03906 22094 ft 363 kts 308°
2026-05-07 23:01 20.41638 -157.06007 22091 ft 363 kts 308°
2026-05-07 23:01 20.43223 -157.08105 22090 ft 363 kts 308°
2026-05-07 23:02 20.44809 -157.10206 22091 ft 363 kts 308°
2026-05-07 23:02 20.46396 -157.12306 22091 ft 363 kts 308°
2026-05-07 23:02 20.47959 -157.14378 22090 ft 363 kts 308°
2026-05-07 23:02 20.49542 -157.16483 22093 ft 363 kts 308°
2026-05-07 23:03 20.51123 -157.18582 22089 ft 363 kts 308°
2026-05-07 23:03 20.52706 -157.20680 22022 ft 362 kts 308°
2026-05-07 23:03 20.54271 -157.22752 21766 ft 355 kts 307°
2026-05-07 23:03 20.55812 -157.24790 21524 ft 351 kts 308°
2026-05-07 23:04 20.57341 -157.26814 21280 ft 349 kts 308°
2026-05-07 23:04 20.58862 -157.28835 21040 ft 349 kts 307°
2026-05-07 23:04 20.60377 -157.30851 20799 ft 347 kts 307°
2026-05-07 23:04 20.61885 -157.32856 20565 ft 346 kts 307°
2026-05-07 23:05 20.63383 -157.34849 20319 ft 341 kts 307°
2026-05-07 23:05 20.64856 -157.36815 19948 ft 338 kts 307°
2026-05-07 23:05 20.66322 -157.38776 19558 ft 337 kts 307°
2026-05-07 23:05 20.67782 -157.40725 19162 ft 336 kts 307°
2026-05-07 23:06 20.69244 -157.42670 18758 ft 335 kts 307°
2026-05-07 23:06 20.70701 -157.44607 18369 ft 334 kts 308°
2026-05-07 23:06 20.72157 -157.46543 17938 ft 333 kts 307°
2026-05-07 23:06 20.73598 -157.48462 17544 ft 330 kts 308°
2026-05-07 23:07 20.75029 -157.50371 17152 ft 328 kts 307°
2026-05-07 23:07 20.76448 -157.52265 16767 ft 325 kts 307°
2026-05-07 23:07 20.77862 -157.54153 16381 ft 324 kts 307°
2026-05-07 23:07 20.79247 -157.56001 16015 ft 322 kts 307°
2026-05-07 23:08 20.80643 -157.57862 15635 ft 320 kts 307°
2026-05-07 23:08 20.82031 -157.59719 15260 ft 319 kts 307°
2026-05-07 23:08 20.83414 -157.61572 14883 ft 318 kts 307°
2026-05-07 23:08 20.84792 -157.63414 14509 ft 317 kts 306°
2026-05-07 23:09 20.86165 -157.65249 14132 ft 316 kts 307°
2026-05-07 23:09 20.87534 -157.67078 13749 ft 315 kts 307°
2026-05-07 23:09 20.88902 -157.68903 13355 ft 313 kts 307°
2026-05-07 23:09 20.90259 -157.70715 12986 ft 310 kts 307°
2026-05-07 23:10 20.91601 -157.72510 12616 ft 308 kts 306°
2026-05-07 23:10 20.92935 -157.74294 12252 ft 306 kts 307°
2026-05-07 23:10 20.94261 -157.76068 11889 ft 304 kts 307°
2026-05-07 23:10 20.95579 -157.77835 11525 ft 303 kts 307°
2026-05-07 23:11 20.96891 -157.79597 11166 ft 302 kts 305°
2026-05-07 23:11 20.98179 -157.81326 10806 ft 300 kts 306°
2026-05-07 23:11 20.99480 -157.83072 10447 ft 299 kts 306°
2026-05-07 23:11 21.00770 -157.84811 10087 ft 298 kts 307°
2026-05-07 23:12 21.02057 -157.86546 9696 ft 297 kts 307°
2026-05-07 23:12 21.03337 -157.88270 9333 ft 295 kts 307°
2026-05-07 23:12 21.04606 -157.89980 8975 ft 292 kts 306°
2026-05-07 23:12 21.05869 -157.91676 8619 ft 290 kts 307°
2026-05-07 23:13 21.07243 -157.93245 8255 ft 289 kts 319°
2026-05-07 23:13 21.08957 -157.94359 7911 ft 289 kts 336°
2026-05-07 23:13 21.10867 -157.95042 7549 ft 289 kts 341°
2026-05-07 23:13 21.12776 -157.95691 7178 ft 287 kts 341°
2026-05-07 23:14 21.14036 -157.96124 6933 ft 287 kts 342°
2026-05-07 23:14 21.15934 -157.96778 6560 ft 286 kts 341°
2026-05-07 23:14 21.17809 -157.97426 6365 ft 279 kts 342°
2026-05-07 23:14 21.19646 -157.98062 6261 ft 277 kts 342°
2026-05-07 23:15 21.21468 -157.98715 6139 ft 274 kts 337°
2026-05-07 23:15 21.22956 -157.99885 6016 ft 261 kts 308°
2026-05-07 23:15 21.23737 -158.01592 5721 ft 257 kts 281°
2026-05-07 23:15 21.23820 -158.03488 5339 ft 253 kts 270°
2026-05-07 23:16 21.23812 -158.05365 4992 ft 250 kts 271°
2026-05-07 23:16 21.23889 -158.07185 4669 ft 243 kts 283°
2026-05-07 23:16 21.24506 -158.08802 4395 ft 229 kts 306°
2026-05-07 23:16 21.25577 -158.10013 4133 ft 220 kts 327°
2026-05-07 23:17 21.26911 -158.10723 3891 ft 212 kts 345°
2026-05-07 23:17 21.28355 -158.10917 3645 ft 208 kts
2026-05-07 23:17 21.29750 -158.10606 3400 ft 204 kts 23°
2026-05-07 23:17 21.30954 -158.09842 3166 ft 199 kts 41°
2026-05-07 23:18 21.31858 -158.08731 2875 ft 198 kts 57°
2026-05-07 23:18 21.32391 -158.07375 2583 ft 198 kts 76°
2026-05-07 23:18 21.32517 -158.05912 2296 ft 197 kts 88°
2026-05-07 23:18 21.32511 -158.04470 2017 ft 188 kts 86°
2026-05-07 23:19 21.32508 -158.03100 1784 ft 177 kts 86°
2026-05-07 23:19 21.32505 -158.01833 1522 ft 164 kts 86°
2026-05-07 23:19 21.32504 -158.00651 1293 ft 152 kts 86°
2026-05-07 23:19 21.32504 -157.99570 1093 ft 136 kts 86°
2026-05-07 23:20 21.32506 -157.98576 882 ft 130 kts 88°
2026-05-07 23:20 21.32512 -157.97618 673 ft 129 kts 85°
2026-05-07 23:20 21.32506 -157.96677 497 ft 129 kts 89°
2026-05-07 23:20 21.32526 -157.95725 353 ft 127 kts 86°
2026-05-07 23:21 21.32530 -157.94775 173 ft 128 kts 87°
2026-05-07 23:21 21.32527 -157.93852 19 ft 112 kts 88°
2026-05-07 23:21 21.32528 -157.93156 7 ft 69 kts 90°
2026-05-07 23:21 21.32530 -157.92866 12 ft 11 kts 73°
2026-05-07 23:22 21.32582 -157.92796 13 ft 13 kts 51°
2026-05-07 23:22 21.32637 -157.92699 13 ft 17 kts 63°
2026-05-07 23:22 21.32699 -157.92583 13 ft 19 kts 59°
2026-05-07 23:22 21.32770 -157.92445 11 ft 23 kts 67°
2026-05-07 23:23 21.32775 -157.92312 12 ft 9 kts 91°
2026-05-07 23:23 21.32796 -157.92250 13 ft 10 kts 25°
2026-05-07 23:23 21.32856 -157.92297 13 ft 13 kts 308°
2026-05-07 23:23 21.32899 -157.92338 11 ft 2 kts 322°
2026-05-07 23:24 21.32904 -157.92342 11 ft 0 kts 320°